Flag for Germany Weather past 2 weeks in Höxter, North Rhine-Westphalia, Germany

Now
46 °F

Light freezing rain. Overcast.


Feels Like: 43 °F
Forecast: 37 / 45 °F
Wind: 6 mph from Southwest

Location: Bad Lippspringe

Current Time: Mar 1, 2015 at 12:30:28 PM

Latest Report: Mar 1, 2015 at 12:00 PM


Visibility: 14 mi

Pressure: 29.58 "Hg

Humidity: 86%

Dew point: 42 °F

Location of HöxterLocation

Historic Weather in Höxter — Graph

°F

Höxter temperature yesterday

Maximum temperature yesterday: 45 °F (at 4:00 PM)
Minimum temperature yesterday: 30 °F (at 3:00 AM)
Average temperature yesterday: 37 °F

Past Weeks' High & Low Weather Summary

 TemperatureHumidityPressure
High49 °F (Feb 14, 2:00 PM)100% (Feb 17, 6:00 PM)30.78 "Hg (Feb 17, 6:00 PM)
Low26 °F (Feb 19, 5:00 AM)44% (Feb 28, 3:00 PM)29.32 "Hg (Feb 21, 7:00 AM)
Average38 °F81%29.98 "Hg
* Reported Feb 14 11:00 AM — Mar 1 11:00 AM, Höxter, Weather by CustomWeather, © 2015

Note: Actual official high and low records may vary slightly from our data, if they occured in-between our weather recording intervals... More about our weather records

Advertising

Höxter weather history for previous 24 hours

 ConditionsComfort  
Time TempWeatherWind HumidityBarometerVisibility
11:00 AM
Sun, Mar 1
45 °FOvercast.7 mph81%29.58 "Hg43 mi
10:00 AM44 °FOvercast.8 mph81%29.59 "Hg43 mi
9:00 AM42 °FOvercast.6 mph85%29.57 "Hg43 mi
8:00 AM38 °FDrizzle. Overcast.6 mph91%29.59 "Hg11 mi
7:00 AM38 °FDrizzle. Overcast.6 mph86%29.60 "Hg19 mi
6:00 AM38 °FLight rain. Overcast.5 mph88%29.62 "Hg17 mi
5:00 AM38 °FLight rain. Overcast.3 mph78%29.65 "HgN/A
4:00 AM40 °FOvercast.6 mph65%29.66 "HgN/A
3:00 AM40 °FOvercast.3 mph64%29.72 "Hg43 mi
2:00 AM39 °FOvercast.5 mph64%29.76 "Hg43 mi
1:00 AM39 °FOvercast.3 mph62%29.79 "Hg43 mi
12:00 AM39 °FOvercast.3 mph60%29.84 "Hg43 mi
11:00 PM
Sat, Feb 28
36 °FClear.3 mph68%29.88 "Hg43 mi
10:00 PM38 °FClear.5 mph65%29.92 "Hg43 mi
9:00 PM38 °FClear.5 mph65%29.95 "Hg43 mi
8:00 PM39 °FClear.5 mph66%29.96 "Hg43 mi
7:00 PM39 °FPassing clouds.2 mph69%29.97 "Hg43 mi
6:00 PM42 °FSunny.3 mph55%29.98 "Hg43 mi
5:00 PM44 °FSunny.6 mph53%30.01 "Hg40 mi
4:00 PM45 °FPassing clouds.5 mph51%30.03 "Hg25 mi
3:00 PM45 °FSunny.6 mph44%30.05 "Hg28 mi
2:00 PM44 °FPartly sunny.3 mph53%30.07 "Hg31 mi
1:00 PM43 °FOvercast.5 mph52%30.10 "Hg28 mi
12:00 PM41 °FSunny.5 mph61%30.12 "Hg19 mi
Weather by CustomWeather, © 2015

See weather overviewHow to use our weather pages